Location: Buffign�court
(47.8126°N, 6.0176°E)
Time: 02:55:22
(UTC+00:00)

Cosmos 1992 Rocket - Pass Details

Date: 16 June 2021
Orbit: 758 x 766 km, 74.0° (Epoch: 04 August)

Event Time Altitude Azimuth Distance (km) Brightness Sun altitude
Exits shadow 22:32:33 30° 179° (S) 1,348 4.7 -17.4°
Maximum altitude 22:35:04 63° 108° (ESE) 848 4.0 -17.5°
Drops below altitude 10° 22:40:14 10° 28° (NNE) 2,309 7.2 -17.7°
Sets 22:42:38 0° 26° (NNE) 3,240 8.1 -17.8°
